Wind_Speed
38 37 36 39 40 37 37 39 36 31 25 22 24 25 22 18 17 21 30 31 28 29 25 23 29 32 32 31 30 27 24 23 25 24 22 21 20 19 19 18 19 20
39 36 34 34 35 36 38 40 41 38 30 25 26 26 19 16 17 21 29 28 25 27 27 25 31 33 31 31 30 26 24 23 25 26 24 22 20 19 19 19 20 19
39 36 36 35 32 31 34 40 43 39 32 28 27 26 21 18 20 21 23 23 21 23 25 25 30 32 31 31 28 25 23 23 25 25 24 23 22 21 19 18 19 19
39 38 37 35 32 29 29 37 43 38 32 32 31 30 26 23 23 21 20 21 20 21 22 22 26 29 28 28 27 26 25 24 25 25 24 25 24 21 19 18 18 19
41 43 41 35 32 29 27 33 41 40 35 35 35 34 30 27 24 21 19 19 19 19 20 20 22 25 25 24 26 28 28 26 25 25 26 26 23 21 19 18 19 20
42 45 44 39 37 34 30 30 38 42 39 36 37 38 34 30 27 24 22 20 19 19 19 19 20 22 23 23 24 26 27 27 27 26 26 26 23 21 19 18 20 23
40 43 43 41 40 39 36 32 33 38 39 38 40 41 37 32 28 26 23 21 21 20 19 20 21 22 23 22 23 25 25 26 26 25 25 25 23 22 20 18 19 23
36 38 39 39 39 39 38 35 33 33 35 39 43 44 42 37 32 28 24 21 21 22 21 21 21 21 22 22 23 24 24 24 25 24 24 24 24 22 20 19 18 20
34 34 35 36 37 37 35 34 34 31 30 35 42 46 48 48 41 31 24 22 21 21 21 22 22 22 22 22 23 24 23 23 23 23 24 25 24 23 20 20 20 19
33 33 34 34 35 35 33 33 35 33 31 34 40 44 47 50 46 33 22 21 22 23 24 24 22 23 23 22 23 23 23 23 23 23 23 23 24 23 20 19 21 21
34 33 35 36 34 34 34 34 33 34 34 33 35 39 42 44 44 34 24 21 22 24 28 26 22 22 23 22 22 22 22 23 23 23 23 22 22 22 21 20 21 21
34 34 35 37 37 35 34 32 31 33 36 33 29 33 39 39 37 33 26 22 21 23 28 28 23 22 22 21 21 21 21 22 23 25 25 23 22 22 22 21 20 20
32 35 35 34 36 37 36 34 33 33 37 37 30 31 37 37 34 30 26 22 21 24 29 28 24 22 21 20 19 20 20 20 22 24 25 23 21 22 23 21 20 20
29 32 34 31 31 35 37 37 36 35 36 36 32 30 34 36 35 31 28 26 24 26 30 30 26 24 22 20 19 19 20 21 21 23 25 23 21 21 22 21 20 21
30 31 33 33 30 29 31 33 33 33 32 33 32 30 32 37 38 33 29 30 29 30 33 35 32 28 25 24 21 21 23 25 23 22 23 24 22 21 21 21 21 22
29 30 32 35 32 28 29 31 31 31 32 33 34 32 32 36 38 34 31 31 31 33 36 38 39 36 32 30 26 24 26 28 27 24 23 24 24 22 22 22 22 22
21 25 29 34 35 31 28 29 30 31 33 34 34 33 34 37 38 39 40 39 37 38 40 41 43 41 37 34 31 29 27 27 28 28 24 23 23 23 22 22 21 22
15 20 24 29 32 32 30 30 30 31 32 34 34 33 33 36 39 42 44 45 43 44 45 45 46 45 43 41 37 34 31 28 29 29 27 26 25 23 23 22 22 22
13 17 21 23 25 28 30 30 30 31 33 33 34 33 30 32 35 37 38 42 44 44 44 45 46 46 47 46 42 37 34 30 30 31 31 31 29 27 26 25 25 24
12 14 18 20 20 21 24 26 27 29 31 30 31 32 32 32 33 32 33 38 43 44 43 43 43 44 45 45 43 39 33 30 31 31 29 27 28 28 28 28 28 29
11 10 13 18 20 20 22 24 25 27 28 27 27 29 30 32 32 32 32 35 38 38 37 39 41 41 40 41 41 35 30 28 30 31 27 22 23 25 24 24 26 29
10 9 8 13 17 19 21 23 25 25 25 25 25 26 27 29 31 32 32 32 33 32 32 34 37 37 36 36 34 30 28 29 31 32 28 23 23 25 25 24 26 27
13 11 9 10 13 17 19 22 24 25 24 23 23 24 25 26 27 28 29 29 30 31 32 32 33 34 34 33 31 30 31 32 33 32 30 26 24 24 23 24 27 29
16 15 13 11 11 13 15 18 21 24 24 24 24 24 25 25 24 25 26 27 27 29 31 32 32 32 32 31 32 32 33 34 34 31 28 26 25 24 23 24 27 30
19 18 17 16 14 13 13 14 16 19 20 22 23 24 25 25 25 25 26 26 26 27 28 30 31 30 29 31 32 32 33 34 32 26 23 24 25 26 27 27 26 29
22 22 21 20 19 17 16 15 15 15 17 18 21 22 23 24 24 25 26 26 27 27 26 28 30 29 28 30 33 33 34 34 31 26 24 27 29 30 31 30 28 29
Wind_Direction
232 230 229 229 229 226 225 228 231 229 224 219 220 225 225 221 216 227 241 236 222 221 218 215 221 222 221 221 219 219 217 219 224 225 225 226 228 229 230 231 233 235
231 228 228 227 228 227 225 229 234 232 227 224 224 225 220 217 221 231 238 232 221 223 222 219 223 223 222 222 221 220 219 222 226 227 227 227 227 229 230 232 235 236
230 228 228 227 227 229 227 227 228 227 229 233 232 231 225 225 232 233 230 223 216 220 220 219 224 225 225 224 223 223 221 222 225 227 228 227 227 230 231 231 233 235
230 228 227 226 227 229 228 227 226 225 229 236 238 237 233 232 234 231 224 219 217 221 222 223 225 226 227 225 224 226 226 225 227 228 229 230 229 230 231 231 232 233
230 230 229 227 227 227 226 228 228 227 229 234 239 241 237 233 229 226 224 221 221 226 227 226 225 225 226 224 223 227 229 229 228 227 229 232 232 231 230 230 230 231
230 230 230 230 231 230 225 225 227 226 226 229 237 241 239 236 233 233 233 229 227 228 225 224 225 224 224 223 224 227 228 230 229 228 230 232 233 233 231 228 230 233
232 230 229 231 235 235 230 227 227 228 225 224 231 238 239 239 239 236 233 231 233 230 222 221 222 225 226 223 223 226 227 229 230 229 230 231 231 232 231 228 230 233
237 232 229 230 234 235 234 231 230 231 229 226 229 234 238 238 236 233 231 235 241 235 222 218 219 222 224 221 222 225 227 228 229 226 228 230 230 229 229 229 229 230
238 234 230 230 231 232 232 232 231 228 229 230 228 228 230 232 234 238 237 238 244 241 229 224 223 222 220 218 220 224 226 226 225 225 226 229 230 228 227 229 231 232
234 231 230 229 229 228 226 229 231 227 226 232 231 227 226 229 234 239 237 236 244 246 239 231 226 226 224 219 218 222 226 228 227 227 227 228 230 229 226 227 231 234
232 230 230 228 226 225 225 228 231 226 224 231 232 229 227 229 233 233 227 233 246 250 246 238 229 228 226 219 217 220 224 228 229 230 230 228 229 230 226 224 228 232
232 230 230 230 227 224 223 225 225 220 222 226 225 228 231 230 232 230 222 229 246 251 247 240 228 224 224 219 219 221 224 229 231 232 232 230 229 231 228 223 223 225
228 230 231 232 230 227 223 221 221 224 229 231 228 230 234 231 229 229 225 233 252 255 248 239 224 217 220 220 220 222 223 226 228 228 230 230 228 229 228 225 222 221
226 230 233 233 231 231 228 224 226 231 234 234 230 227 229 226 221 222 225 232 246 255 252 243 227 215 217 220 219 221 227 229 226 224 226 228 227 227 226 223 222 224
225 227 232 234 230 229 228 226 227 229 229 229 227 224 223 221 216 214 219 224 233 244 249 246 238 228 232 239 233 230 238 241 233 223 223 227 227 226 226 223 222 225
226 223 229 232 230 224 222 223 224 223 223 225 227 226 223 222 217 213 217 223 228 233 237 242 243 240 245 253 251 246 248 246 239 228 221 224 225 224 223 223 222 224
232 224 230 233 232 226 220 221 220 218 219 222 225 225 222 220 218 216 221 227 228 225 225 233 240 241 245 252 255 256 252 245 241 235 225 221 222 223 224 223 222 224
246 229 232 233 234 231 225 222 221 218 218 220 221 222 220 219 219 219 221 224 223 221 224 230 235 239 244 247 250 255 252 241 237 235 231 227 223 222 224 224 224 225
274 251 242 237 238 237 234 232 229 222 218 218 218 217 214 216 219 218 219 221 221 223 229 232 233 236 240 241 243 249 248 238 231 230 232 233 231 229 228 226 226 226
302 274 253 245 246 247 244 243 239 229 222 219 218 216 213 214 217 217 218 220 223 227 232 233 232 234 236 236 239 244 241 231 226 227 228 231 233 235 234 232 234 239
321 302 263 250 250 247 242 243 242 236 228 221 217 217 216 216 218 219 218 219 222 225 230 232 232 234 235 233 233 233 227 223 222 223 223 224 226 228 230 231 235 242
306 315 293 268 261 252 242 239 242 241 234 226 221 218 218 218 219 220 220 219 221 223 227 231 233 234 237 236 229 220 217 221 222 222 223 224 224 225 227 231 232 235
280 287 290 285 278 267 254 246 246 245 240 233 227 222 219 218 217 219 220 220 222 225 228 231 231 230 234 235 228 221 220 223 223 222 223 225 227 229 229 231 234 234
280 276 274 276 280 277 266 256 252 251 248 242 237 231 227 222 218 219 220 222 224 226 227 229 229 230 233 233 227 223 224 225 224 223 223 225 228 231 231 231 235 238
282 279 273 269 271 273 268 262 257 255 253 248 244 240 235 229 224 223 223 224 226 225 226 228 229 229 231 229 225 223 224 226 226 224 223 227 230 233 235 235 234 240
281 280 276 269 267 266 263 259 255 252 251 249 246 243 239 232 227 225 225 225 225 225 226 229 230 229 229 227 226 226 226 226 224 221 222 228 233 235 236 235 234 237
Height
1461 1463 1464 1466 1467 1469 1472 1474 1477 1480 1482 1484 1486 1487 1489 1491 1493 1495 1497 1499 1501 1503 1506 1509 1511 1514 1516 1519 1521 1523 1525 1527 1529 1531 1533 1533 1534 1535 1536 1537 1537 1538
1458 1459 1461 1463 1464 1466 1468 1471 1473 1476 1479 1480 1482 1484 1487 1489 1490 1492 1494 1497 1499 1501 1503 1506 1508 1511 1514 1516 1518 1520 1522 1524 1526 1528 1529 1530 1531 1532 1533 1534 1535 1535
1454 1456 1458 1459 1461 1462 1464 1466 1469 1473 1475 1476 1477 1480 1483 1486 1487 1489 1492 1494 1497 1499 1500 1503 1505 1508 1511 1513 1516 1518 1519 1521 1523 1525 1526 1527 1528 1528 1529 1530 1531 1532
1449 1452 1454 1456 1458 1460 1461 1463 1465 1469 1472 1473 1474 1476 1479 1482 1484 1487 1489 1491 1494 1496 1497 1500 1502 1505 1507 1510 1513 1515 1516 1518 1520 1522 1522 1523 1524 1525 1526 1527 1527 1529
1445 1447 1450 1453 1455 1457 1458 1459 1462 1465 1468 1469 1471 1473 1475 1478 1481 1484 1487 1489 1491 1493 1495 1497 1500 1502 1504 1507 1510 1511 1513 1515 1517 1518 1519 1520 1520 1521 1522 1523 1523 1524
1441 1442 1445 1449 1451 1452 1454 1455 1457 1460 1463 1466 1469 1470 1472 1475 1479 1482 1484 1487 1488 1490 1492 1494 1496 1499 1501 1504 1506 1508 1510 1512 1513 1514 1515 1516 1517 1517 1518 1519 1520 1520
1437 1438 1441 1444 1445 1447 1449 1451 1452 1454 1459 1462 1465 1466 1468 1472 1475 1478 1481 1484 1485 1487 1489 1491 1492 1495 1497 1500 1502 1503 1506 1507 1509 1510 1511 1512 1513 1513 1513 1515 1516 1517
1434 1435 1437 1439 1440 1442 1445 1447 1448 1450 1454 1458 1460 1462 1466 1469 1471 1474 1477 1479 1481 1483 1485 1486 1488 1490 1493 1495 1497 1499 1501 1503 1505 1506 1507 1508 1508 1509 1510 1511 1513 1514
1431 1432 1434 1435 1436 1438 1441 1443 1445 1448 1451 1453 1456 1459 1462 1465 1467 1470 1473 1476 1477 1480 1482 1483 1483 1486 1489 1491 1493 1495 1497 1499 1500 1502 1503 1503 1504 1505 1506 1508 1509 1510
1427 1429 1431 1432 1433 1435 1437 1439 1441 1445 1447 1449 1451 1455 1457 1460 1464 1467 1470 1472 1474 1476 1479 1479 1480 1481 1484 1487 1489 1491 1493 1495 1496 1497 1499 1500 1500 1501 1503 1505 1506 1507
1424 1426 1427 1428 1430 1431 1433 1435 1438 1441 1443 1445 1447 1451 1454 1457 1460 1463 1466 1468 1469 1472 1474 1475 1477 1479 1480 1482 1484 1487 1489 1491 1492 1494 1495 1496 1497 1498 1499 1500 1502 1503
1420 1422 1423 1424 1426 1428 1430 1432 1435 1437 1440 1442 1444 1445 1449 1453 1455 1458 1461 1463 1466 1468 1469 1471 1474 1476 1478 1479 1481 1482 1484 1486 1488 1490 1491 1493 1494 1494 1495 1495 1497 1498
1415 1417 1419 1421 1422 1424 1426 1428 1431 1434 1436 1439 1442 1442 1444 1448 1450 1452 1455 1458 1461 1463 1465 1467 1470 1473 1474 1476 1478 1478 1480 1482 1484 1486 1488 1489 1490 1491 1491 1491 1491 1493
1412 1414 1416 1418 1418 1420 1422 1425 1428 1431 1432 1435 1438 1439 1440 1443 1445 1447 1449 1453 1457 1460 1462 1464 1467 1469 1470 1472 1474 1475 1475 1477 1479 1482 1484 1485 1486 1487 1487 1487 1487 1488
1408 1410 1413 1415 1415 1415 1417 1420 1423 1426 1428 1430 1433 1435 1437 1438 1441 1445 1447 1450 1454 1458 1459 1460 1463 1464 1464 1466 1469 1470 1471 1472 1474 1478 1480 1481 1482 1483 1483 1483 1483 1483
1406 1408 1410 1412 1411 1410 1412 1415 1417 1420 1423 1425 1428 1431 1433 1434 1437 1441 1444 1447 1451 1455 1456 1457 1459 1459 1460 1462 1464 1465 1467 1468 1470 1472 1475 1477 1478 1479 1479 1479 1479 1479
1404 1407 1409 1409 1408 1407 1408 1410 1411 1413 1416 1418 1422 1425 1427 1430 1433 1435 1437 1441 1446 1450 1452 1454 1454 1455 1456 1458 1460 1461 1462 1464 1465 1467 1470 1472 1474 1474 1475 1474 1474 1475
1403 1405 1405 1406 1406 1405 1405 1406 1407 1409 1411 1414 1416 1418 1420 1423 1427 1428 1430 1434 1439 1442 1445 1447 1449 1450 1452 1454 1455 1457 1458 1460 1461 1463 1465 1467 1468 1469 1471 1471 1471 1472
1402 1402 1402 1403 1403 1402 1402 1403 1403 1405 1407 1410 1411 1412 1414 1418 1421 1424 1426 1428 1431 1435 1437 1441 1443 1445 1448 1449 1450 1452 1454 1455 1457 1458 1460 1461 1462 1464 1466 1467 1467 1468
1401 1400 1399 1399 1398 1399 1399 1401 1401 1402 1404 1406 1407 1407 1408 1412 1415 1418 1421 1423 1426 1429 1432 1435 1438 1440 1442 1444 1445 1447 1449 1450 1452 1453 1455 1456 1457 1458 1460 1461 1462 1462
1400 1399 1398 1397 1396 1397 1398 1400 1401 1401 1401 1401 1401 1401 1403 1407 1410 1413 1416 1419 1422 1425 1428 1430 1433 1435 1437 1437 1438 1441 1444 1446 1447 1448 1450 1452 1453 1453 1454 1456 1458 1458
1398 1399 1399 1399 1398 1397 1397 1398 1398 1398 1397 1395 1395 1397 1400 1403 1406 1409 1412 1415 1418 1422 1424 1425 1428 1430 1431 1432 1433 1435 1438 1441 1442 1444 1445 1446 1447 1447 1448 1450 1453 1453
1396 1396 1397 1399 1399 1397 1396 1395 1395 1395 1394 1392 1391 1393 1396 1398 1401 1404 1408 1411 1414 1417 1419 1421 1423 1426 1426 1427 1428 1431 1433 1435 1437 1439 1440 1441 1442 1443 1443 1445 1447 1448
1395 1395 1395 1396 1397 1396 1396 1395 1394 1393 1392 1391 1391 1392 1393 1394 1397 1400 1403 1407 1409 1412 1415 1417 1420 1421 1422 1423 1424 1426 1428 1430 1433 1434 1435 1437 1438 1438 1438 1440 1441 1442
1393 1393 1394 1394 1394 1394 1394 1394 1394 1393 1392 1391 1391 1392 1392 1392 1394 1397 1400 1403 1406 1408 1410 1413 1415 1417 1418 1418 1420 1422 1424 1426 1429 1430 1431 1432 1433 1433 1433 1435 1437 1437
1391 1391 1392 1392 1392 1392 1392 1392 1392 1392 1391 1391 1391 1391 1391 1391 1392 1394 1396 1399 1401 1404 1406 1408 1410 1412 1413 1414 1416 1418 1419 1421 1424 1425 1426 1427 1427 1428 1428 1430 1432 1433